Flag for Germany Weather past 2 weeks in Weyhe, Lower Saxony, Germany

Now
50 °F

Light rain. Partly sunny.


Feels Like: 44 °F
Forecast: 40 / 43 °F
Wind: 17 mph from West

Location: Bremen Airport

Current Time: Dec 19, 2014 at 11:25:34 AM

Latest Report: Dec 19, 2014 at 10:50 AM


Visibility: N/A

Pressure: 29.65 "Hg

Humidity: 88%

Dew point: 46 °F

Location of WeyheLocation

Historic Weather in Weyhe — Graph

°F

Weyhe temperature yesterday

Maximum temperature yesterday: 54 °F (at 3:50 PM)
Minimum temperature yesterday: 48 °F (at 12:20 AM)
Average temperature yesterday: 51 °F

Past Weeks' High & Low Weather Summary

 TemperatureHumidityPressure
High54 °F (Dec 18, 3:50 PM)100% (Dec 4, 6:50 PM)30.33 "Hg (Dec 4, 6:50 PM)
Low32 °F (Dec 4, 10:20 AM)70% (Dec 10, 4:20 AM)29.24 "Hg (Dec 12, 11:50 AM)
Average40 °F91%29.86 "Hg
* Reported Dec 4 10:20 AM — Dec 19 10:20 AM, Weyhe, Weather by CustomWeather, © 2014

Note: Actual official high and low records may vary slightly from our data, if they occured in-between our weather recording intervals... More about our weather records

Advertising

Weyhe weather history for previous 24 hours

 ConditionsComfort  
Time TempWeatherWind HumidityBarometerVisibility
10:20 AM
Dec 19
50 °FLight rain. Partly sunny.16 mph94%29.65 "HgN/A
9:50 AM54 °FRain. Partly sunny.18 mph88%29.62 "Hg4 mi
9:20 AM54 °FLight rain. Partly sunny.20 mph88%29.62 "Hg5 mi
8:50 AM54 °FLight rain. Partly sunny.18 mph88%29.62 "HgN/A
8:20 AM54 °FLight rain. Passing clouds.17 mph88%29.62 "HgN/A
7:20 AM52 °FLight rain. Passing clouds.17 mph94%29.62 "HgN/A
6:50 AM52 °FLight rain. Passing clouds.18 mph94%29.62 "HgN/A
6:20 AM52 °FLight rain. Passing clouds.17 mph94%29.65 "Hg6 mi
5:50 AM52 °FLight rain. Passing clouds.18 mph94%29.65 "Hg5 mi
5:20 AM52 °FLight rain. Passing clouds.16 mph94%29.65 "HgN/A
4:20 AM54 °FPassing clouds.17 mph94%29.68 "Hg2 mi
3:50 AM54 °FPassing clouds.17 mph94%29.68 "Hg4 mi
3:20 AM54 °FPassing clouds.18 mph94%29.68 "Hg2 mi
2:50 AM54 °FPassing clouds.18 mph94%29.71 "Hg3 mi
2:20 AM54 °FPassing clouds.17 mph94%29.68 "Hg2 mi
1:50 AM54 °FPassing clouds.18 mph94%29.68 "Hg3 mi
1:20 AM54 °FPassing clouds.20 mph94%29.68 "Hg3 mi
12:50 AM54 °FPartly cloudy.20 mph94%29.68 "Hg3 mi
12:20 AM54 °FPassing clouds.21 mph94%29.68 "Hg3 mi
11:50 PM
Dec 18
54 °FPassing clouds.18 mph94%29.68 "Hg3 mi
11:20 PM54 °FPassing clouds.21 mph94%29.68 "Hg4 mi
10:50 PM54 °FPassing clouds.21 mph94%29.68 "Hg4 mi
10:20 PM52 °FDrizzle. Fog.21 mph100%29.68 "Hg2 mi
9:50 PM52 °FDrizzle. Fog.21 mph100%29.68 "Hg2 mi
9:20 PM54 °FDrizzle. Fog.21 mph94%29.68 "Hg3 mi
8:50 PM54 °FDrizzle. Fog.20 mph94%29.68 "Hg2 mi
8:20 PM54 °FDrizzle. Fog.20 mph94%29.68 "Hg2 mi
7:50 PM54 °FDrizzle. Fog.21 mph94%29.65 "Hg2 mi
7:20 PM54 °FDrizzle. Fog.20 mph94%29.65 "Hg3 mi
6:50 PM54 °FDrizzle. Fog.20 mph94%29.65 "Hg3 mi
6:20 PM54 °FPartly cloudy.18 mph94%29.65 "Hg4 mi
5:50 PM54 °FDrizzle. Fog.16 mph94%29.65 "Hg3 mi
5:20 PM52 °FDrizzle. Fog.16 mph100%29.65 "Hg3 mi
4:50 PM52 °FDrizzle. Fog.16 mph94%29.65 "Hg2 mi
4:20 PM52 °FFog.15 mph94%29.65 "Hg3 mi
3:50 PM54 °FBroken clouds.17 mph88%29.65 "Hg4 mi
3:20 PM52 °FBroken clouds.15 mph94%29.65 "Hg5 mi
2:50 PM52 °FBroken clouds.14 mph94%29.65 "Hg5 mi
2:20 PM52 °FBroken clouds.13 mph94%29.68 "Hg4 mi
1:50 PM52 °FDrizzle. Broken clouds.13 mph94%29.68 "Hg4 mi
1:20 PM52 °FBroken clouds.14 mph94%29.68 "HgN/A
12:50 PM52 °FDrizzle. Broken clouds.14 mph94%29.68 "HgN/A
12:20 PM52 °FPartly sunny.14 mph94%29.71 "HgN/A
11:20 AM52 °FPartly sunny.14 mph94%29.71 "Hg4 mi
Weather by CustomWeather, © 2014

See weather overviewHow to use our weather pages